Location: Bukit Setapoh
(2.2500°N, 113.8000°E)
Time: 23:29:55
(UTC+00:00)

USA 267 - Pass Details

Date: 25 July 2021
Orbit: 1101 x 1106 km, 123.0° (Epoch: 02 September)

Event Time Altitude Azimuth Distance (km) Brightness Sun altitude
Rises 11:28:36 0° 47° (NE) 3,908 5.9 -12.7°
Reaches altitude 10° 11:31:10 10° 53° (NE) 2,953 5.2 -13.3°
Maximum altitude 11:37:26 50° 126° (SE) 1,378 3.4 -14.7°
Drops below altitude 10° 11:43:42 10° 200° (SSW) 2,962 5.5 -16.2°
Sets 11:46:16 0° 205° (SSW) 3,922 6.2 -16.8°
